Location: Newark
(0.5300°S, 127.4800°E)
Time: 22:44:46
(UTC+00:00)

Hubble Space Telescope - Visible Passes

Search period start: 15 July 2019 00:00
Search period end: 25 July 2019 00:00
Orbit: 536 x 540 km, 28.5° (Epoch: 14 July)

Date Brightness Start Highest point End Pass type
(mag) Time Alt. Az. Time Alt. Az. Time Alt. Az.
15 Jul 1.1 09:55:31 10° NW 09:59:35 58° NNE 10:03:40 10° ESE visible
15 Jul 3.0 11:37:32 10° W 11:39:23 18° WSW 11:39:23 18° WSW visible
15 Jul 3.1 20:11:42 12° S 20:12:58 14° SSE 20:15:09 10° ESE visible
16 Jul 3.1 11:27:40 10° WSW 11:29:37 16° SW 11:29:37 16° SW visible
16 Jul 2.7 20:01:56 18° SSE 20:02:30 19° SSE 20:05:27 10° ESE visible
17 Jul 3.3 11:18:14 10° SW 11:19:50 12° SSW 11:19:51 12° SSW visible
17 Jul 2.4 19:52:09 25° SSE 19:52:09 25° SSE 19:55:28 10° E visible
18 Jul 2.2 19:42:23 31° ESE 19:42:23 31° ESE 19:45:18 10° E visible
19 Jul 2.5 19:32:37 31° E 19:32:37 31° E 19:34:59 10° ENE visible
19 Jul 2.3 21:08:46 10° W 21:12:08 24° NNW 21:15:30 10° NNE visible
20 Jul 3.0 19:22:49 24° ENE 19:22:49 24° ENE 19:24:34 10° ENE visible
20 Jul 2.8 20:58:49 10° WNW 21:01:38 18° NNW 21:04:27 10° NNE visible
21 Jul 3.5 19:13:00 17° NE 19:13:00 17° NE 19:14:03 10° NE visible
21 Jul 3.1 20:49:12 10° WNW 20:51:09 13° NNW 20:53:06 10° N visible
22 Jul 4.0 19:03:09 12° NE 19:03:09 12° NE 19:03:25 10° NE visible
